Wind_Speed
4 4 4 4 3 2 4 4 2 1 1 1 1 1 2 3 3 4 4 3 3 4 4 4 4 3 3 3 4 4 3 2 1 1 2 1 2 2 3 3 4 4 5 4 4 4 5 5 4
5 5 5 5 4 4 5 4 3 2 2 1 1 2 2 3 3 4 4 4 4 5 5 4 4 4 4 4 4 4 3 3 2 2 2 2 2 2 3 3 4 4 5 5 4 4 5 6 5
6 5 5 5 6 6 6 5 4 3 3 2 2 2 3 3 4 5 5 5 5 6 5 5 5 5 5 5 5 4 4 3 3 2 3 3 3 3 3 4 4 4 5 5 5 6 6 5 6
7 6 6 6 7 8 7 6 5 3 3 3 3 3 4 5 5 5 6 7 7 6 6 6 6 6 5 5 5 5 5 4 4 3 3 3 3 3 3 4 5 5 5 5 6 6 6 6 7
8 7 6 7 9 9 8 7 6 5 5 4 4 4 5 5 6 7 7 8 8 8 7 7 7 6 6 5 5 6 5 5 4 4 4 3 3 3 4 5 5 6 6 6 6 7 6 7 7
10 8 8 9 10 9 9 8 7 6 5 5 4 5 5 5 7 8 8 9 9 8 8 8 8 7 7 6 6 6 5 5 5 5 4 4 4 4 4 5 5 6 7 7 7 7 8 8 8
11 11 10 11 11 10 10 9 8 7 6 5 5 6 7 7 8 8 9 9 9 8 8 9 8 7 7 7 7 7 6 5 6 6 5 5 5 5 5 5 6 7 8 8 7 8 9 9 9
12 12 11 11 11 12 11 10 9 8 8 7 7 7 8 8 9 9 10 10 9 9 8 9 8 8 8 7 8 7 6 6 6 7 6 6 6 6 6 6 6 7 8 9 9 9 10 10 10
13 13 12 12 12 13 12 11 10 9 9 8 8 9 9 9 10 10 10 10 10 9 8 8 8 8 8 7 7 8 8 7 6 6 6 7 7 7 7 7 8 8 9 10 10 10 11 10 11
14 13 13 14 13 13 13 12 11 10 10 9 9 9 10 10 11 11 11 11 10 10 9 8 9 8 8 8 8 8 8 7 6 7 7 7 8 8 8 8 9 9 10 11 10 11 11 11 12
14 14 15 15 14 14 13 12 11 10 10 10 11 11 11 11 11 11 11 11 10 10 9 9 9 8 9 9 8 8 8 7 7 7 7 8 8 8 9 10 10 11 11 11 12 11 11 12 12
14 15 15 15 15 14 13 13 12 11 11 11 11 12 12 12 12 12 12 11 10 10 9 10 10 9 9 8 8 7 7 8 7 7 7 8 8 9 10 10 11 11 12 12 12 13 12 12 13
16 16 16 16 16 14 14 14 13 13 12 11 11 12 12 12 12 12 12 11 11 9 9 10 10 10 9 9 9 8 8 7 7 7 7 8 9 9 10 10 11 11 12 13 13 14 14 14 14
17 17 18 18 17 15 14 14 14 13 12 11 11 11 12 11 12 12 12 11 10 10 10 11 10 10 9 9 9 9 8 8 8 9 8 9 9 10 10 10 10 11 12 13 13 14 15 15 15
19 19 18 18 18 16 15 15 13 12 12 11 11 11 11 11 12 12 11 10 10 10 10 10 9 9 9 8 8 8 8 9 10 10 10 10 10 10 10 10 11 11 11 12 13 15 15 15 16
19 19 18 18 18 17 15 14 13 13 12 12 11 11 11 11 11 11 10 10 9 10 10 10 9 9 9 9 8 9 9 10 10 10 10 10 11 11 10 11 11 11 12 13 14 15 15 16 16
20 19 19 19 18 17 16 15 14 14 13 13 12 11 11 11 11 10 10 10 9 9 10 9 9 9 9 10 10 11 11 11 11 11 11 11 11 11 11 11 11 12 13 14 14 15 16 17 17
21 19 19 19 19 18 17 16 15 15 14 13 13 12 11 11 11 10 10 9 9 9 10 10 10 10 11 11 11 11 12 12 11 12 12 12 12 12 12 12 12 13 13 14 15 15 16 17 18
20 19 19 19 18 18 17 16 15 15 14 14 14 13 12 11 11 10 10 10 10 10 10 10 11 11 12 12 12 12 12 12 13 12 12 13 13 13 13 14 14 14 14 15 15 16 17 18 19
19 19 18 17 18 17 17 17 16 15 14 14 14 13 13 12 11 11 10 11 11 11 11 11 11 12 13 13 13 13 13 13 12 13 13 14 14 14 14 14 15 15 15 15 16 17 17 18 19
19 18 18 17 18 18 18 18 17 17 15 14 14 13 13 12 12 12 12 11 11 11 11 11 12 12 12 12 13 13 13 14 14 14 14 14 14 14 15 14 15 15 16 16 17 17 18 18 18
19 18 18 17 17 16 17 17 17 18 17 16 14 13 13 12 11 11 11 12 12 11 11 12 12 12 12 12 13 13 13 14 15 15 15 15 15 15 14 14 14 15 16 17 17 18 17 17 18
19 19 19 18 17 16 16 16 17 17 17 16 14 13 13 12 12 12 12 13 12 12 12 13 13 12 12 13 13 13 13 14 15 16 16 15 15 16 15 15 15 15 16 16 17 17 18 18 18
20 18 18 18 17 16 15 16 16 15 14 15 14 14 13 13 13 14 13 13 12 13 13 13 13 13 13 13 14 14 15 16 16 16 16 16 16 16 16 16 16 16 16 16 17 18 18 18 18
20 19 17 16 16 16 16 16 16 15 15 15 15 14 14 14 14 15 15 14 13 13 13 13 13 14 14 14 14 15 15 16 16 17 17 17 16 17 17 17 17 18 17 17 17 17 18 18 18
21 20 19 18 17 16 17 18 16 15 15 15 15 14 15 15 14 15 15 15 14 14 14 14 14 14 15 15 15 15 16 16 16 17 16 16 17 17 18 18 18 18 18 18 18 17 17 17 18
21 20 20 20 18 17 18 18 17 16 15 15 15 15 16 16 16 16 16 16 16 16 15 15 15 15 16 16 16 17 17 17 17 16 15 15 16 17 18 19 18 18 18 18 19 18 18 17 17
22 21 20 19 19 17 18 19 18 16 15 15 15 15 16 16 17 16 16 17 17 17 17 16 16 16 17 17 17 17 17 17 17 16 16 17 17 17 17 18 18 18 19 19 19 19 18 18 18
23 23 22 21 20 18 17 18 19 17 16 16 16 16 16 16 16 16 16 16 17 16 16 15 16 16 16 16 16 16 17 17 17 16 17 17 17 17 17 17 18 19 19 19 18 18 19 19 19
23 23 23 22 20 20 19 19 19 18 18 18 18 17 17 17 17 17 17 17 17 16 16 17 16 16 15 15 15 16 15 15 15 16 16 17 17 17 16 17 18 18 18 18 18 18 18 18 19
Wind_Direction
235 230 215 204 192 208 230 238 240 235 222 92 64 32 24 22 20 2 354 347 339 338 331 323 330 326 324 321 328 333 336 322 292 260 245 231 228 228 230 222 205 197 202 208 211 210 201 205 211
239 234 221 209 196 229 242 236 236 233 232 253 315 327 340 353 358 356 348 343 333 328 325 320 317 314 314 315 321 329 326 317 297 276 253 248 249 247 235 224 205 203 207 213 218 213 211 217 221
238 232 224 212 213 222 238 237 236 239 243 260 287 304 320 327 332 336 336 338 331 321 318 318 311 304 305 309 309 315 313 307 288 274 263 265 265 254 236 232 213 210 214 217 214 209 216 225 229
235 231 229 226 231 234 241 244 241 249 256 268 278 302 315 314 315 324 329 330 326 317 313 311 307 303 301 301 303 302 300 295 281 277 275 268 264 262 250 241 225 218 219 219 219 223 225 231 236
236 233 231 236 242 244 248 250 245 250 254 266 276 292 307 314 319 320 320 319 318 313 308 310 305 300 298 297 298 297 295 288 277 276 275 272 269 266 255 249 235 230 229 230 231 231 238 233 235
235 233 229 237 246 247 250 248 248 251 258 269 279 288 297 304 310 314 315 314 313 307 299 302 306 305 302 298 297 293 290 288 279 274 275 273 269 267 259 254 246 240 238 235 236 239 242 242 238
234 234 233 237 244 246 245 246 245 250 259 269 280 288 291 294 301 305 309 311 309 302 295 298 299 300 305 303 296 289 289 290 282 276 277 273 268 269 265 258 252 246 242 239 246 243 244 245 244
237 237 239 237 239 239 241 245 247 247 253 263 276 283 288 292 296 299 303 305 304 299 295 297 295 301 305 302 294 288 284 288 284 276 273 272 269 267 268 258 252 247 247 246 245 243 244 248 250
238 236 237 236 237 238 239 244 247 251 257 268 274 277 284 292 296 298 301 301 298 296 295 294 295 296 303 299 292 288 283 286 287 281 279 274 270 267 266 261 255 250 252 253 249 245 245 245 247
238 234 235 238 238 239 241 244 246 252 259 269 275 277 282 287 293 295 296 294 293 293 292 293 295 298 300 299 296 290 286 284 286 285 284 278 271 267 262 259 258 257 256 257 254 251 247 247 245
238 234 236 238 239 240 244 244 245 251 261 269 276 281 282 287 288 291 292 291 289 287 286 288 295 296 299 299 296 295 288 282 279 281 287 284 275 272 266 264 262 260 257 256 254 253 250 249 248
238 235 235 237 238 239 243 246 249 253 259 265 273 277 281 288 291 292 293 289 284 283 282 284 291 294 295 294 297 297 293 289 286 285 291 291 282 276 273 271 267 261 256 255 253 251 250 249 251
237 235 236 238 239 241 244 247 251 254 257 266 271 274 279 288 291 293 291 286 279 282 282 280 286 291 292 290 295 294 292 290 292 295 297 292 286 283 279 274 269 262 258 255 254 252 254 251 250
238 238 238 238 241 241 243 248 251 255 258 263 269 274 281 287 291 293 292 287 278 277 279 279 285 289 292 290 289 291 293 290 293 294 297 293 289 289 280 274 271 264 256 253 254 254 255 254 254
239 238 238 239 241 245 249 252 251 253 255 262 270 275 280 286 291 292 292 288 281 276 279 279 287 288 289 286 287 288 291 289 291 294 297 299 295 290 283 275 272 272 264 261 260 257 258 258 257
236 236 236 240 242 246 250 248 246 249 254 263 269 271 276 281 286 290 289 284 280 276 276 275 277 286 288 288 287 289 288 287 290 292 295 298 298 293 286 281 277 274 268 265 265 264 259 258 257
234 234 234 240 243 246 248 246 249 251 255 262 266 269 272 276 280 287 286 280 281 281 280 276 277 283 287 288 286 284 285 283 282 286 292 295 295 294 288 283 281 277 275 271 269 268 265 261 259
233 234 235 239 243 246 249 251 250 251 254 258 262 267 269 271 274 281 282 278 278 279 279 278 280 284 287 286 285 285 284 281 279 282 288 293 295 295 291 286 282 280 278 275 273 272 269 266 262
233 234 235 239 243 246 248 249 250 249 250 253 257 262 264 268 271 274 276 277 278 278 277 276 278 281 284 284 283 283 283 281 280 283 286 290 293 295 293 290 287 282 278 275 273 272 271 269 267
231 231 232 236 239 242 245 247 250 250 252 253 255 258 264 267 268 272 276 280 280 281 279 277 279 281 283 283 282 280 282 281 281 284 284 288 293 295 295 292 288 283 281 278 276 273 272 270 266
229 229 230 233 238 243 246 247 250 252 253 252 253 255 261 264 265 269 275 277 285 285 282 280 280 282 284 285 283 279 279 278 279 281 282 287 292 294 294 294 289 285 283 281 278 274 271 266 263
228 229 231 234 237 241 244 247 252 254 254 251 252 253 256 261 265 270 274 277 282 284 284 285 283 285 286 286 286 281 282 283 284 282 282 284 289 293 293 292 289 287 286 284 279 275 271 267 264
227 229 231 235 239 242 248 249 251 255 252 250 249 250 256 262 264 270 273 275 277 281 284 285 288 287 286 287 286 284 283 284 284 283 282 282 284 289 292 290 289 288 287 285 281 276 272 267 264
227 229 233 236 241 246 246 248 249 251 250 251 250 252 257 261 266 272 272 274 278 281 282 285 289 292 291 288 287 285 284 285 285 285 283 283 283 287 290 288 287 287 288 287 283 279 275 269 265
229 230 235 239 244 248 248 248 248 250 252 252 252 253 257 262 268 271 270 273 278 281 283 287 289 292 293 291 289 287 285 286 287 284 284 284 284 286 284 285 286 285 287 287 286 282 277 271 266
231 232 232 236 242 246 248 249 250 253 255 255 253 254 258 262 266 268 270 271 275 280 283 286 287 292 292 292 289 287 287 288 289 288 288 286 285 285 285 284 285 285 286 286 284 281 278 274 270
232 231 232 236 240 248 252 254 251 253 254 253 255 255 259 261 263 265 269 271 273 279 285 285 286 288 291 291 293 293 289 290 289 288 289 288 286 287 288 287 287 288 288 286 282 280 277 272 269
232 232 233 236 239 245 252 257 256 257 256 254 255 256 260 262 261 263 267 272 274 278 281 283 285 287 290 292 295 294 291 292 293 291 289 289 288 289 290 288 289 290 291 288 284 280 275 272 270
232 232 235 239 239 244 252 255 255 255 255 254 255 257 259 262 264 266 267 271 275 281 284 286 288 288 291 292 293 294 295 293 293 294 293 292 290 290 289 290 290 293 293 290 287 282 277 274 273
233 233 235 238 242 246 252 256 255 256 256 254 255 257 258 260 262 261 263 269 274 280 284 287 288 288 289 290 291 294 295 295 294 296 298 296 293 294 295 296 296 294 293 289 285 283 280 277 276
Height
5889 5889 5890 5892 5893 5895 5894 5893 5892 5892 5891 5891 5890 5890 5889 5889 5889 5890 5887 5884 5884 5883 5882 5881 5881 5880 5879 5878 5877 5876 5876 5875 5874 5874 5874 5874 5873 5873 5873 5873 5874 5874 5875 5875 5875 5876 5876 5877 5877
5888 5888 5890 5891 5893 5894 5894 5892 5892 5891 5891 5890 5889 5889 5888 5888 5887 5886 5885 5884 5883 5882 5881 5881 5880 5879 5878 5877 5876 5875 5875 5874 5874 5873 5873 5873 5872 5872 5872 5872 5873 5873 5874 5874 5874 5874 5875 5876 5876
5886 5887 5889 5891 5892 5893 5892 5891 5890 5890 5889 5889 5888 5888 5887 5887 5886 5885 5884 5883 5882 5881 5880 5879 5879 5878 5877 5876 5875 5874 5874 5873 5873 5872 5872 5872 5871 5871 5871 5871 5872 5872 5873 5873 5873 5873 5874 5875 5875
5885 5887 5888 5890 5890 5890 5889 5889 5889 5888 5888 5888 5887 5887 5886 5886 5885 5884 5883 5882 5881 5880 5879 5878 5878 5877 5876 5875 5874 5873 5873 5872 5872 5871 5871 5870 5870 5870 5870 5870 5871 5871 5872 5872 5873 5873 5873 5874 5874
5883 5885 5887 5888 5888 5888 5888 5887 5887 5887 5887 5886 5886 5885 5885 5884 5883 5882 5881 5881 5880 5879 5878 5877 5876 5876 5875 5874 5873 5872 5871 5871 5870 5870 5869 5869 5869 5869 5869 5869 5869 5870 5870 5871 5871 5872 5872 5873 5873
5882 5884 5886 5886 5886 5886 5886 5886 5886 5886 5886 5885 5885 5884 5883 5883 5882 5881 5880 5879 5878 5877 5877 5876 5875 5874 5873 5872 5871 5871 5870 5869 5869 5868 5868 5868 5867 5867 5867 5868 5868 5868 5869 5869 5870 5870 5871 5872 5872
5880 5881 5882 5883 5883 5884 5884 5884 5884 5884 5884 5884 5884 5883 5882 5881 5880 5879 5878 5877 5876 5875 5875 5874 5873 5872 5871 5870 5870 5869 5868 5867 5867 5867 5866 5866 5866 5866 5866 5866 5866 5867 5867 5867 5868 5868 5869 5870 5870
5877 5879 5879 5880 5881 5881 5882 5882 5882 5883 5883 5883 5882 5881 5880 5880 5878 5877 5876 5875 5874 5873 5873 5872 5871 5870 5869 5868 5867 5867 5866 5866 5865 5865 5864 5864 5864 5864 5864 5864 5864 5865 5865 5866 5866 5867 5867 5868 5868
5874 5877 5877 5878 5879 5879 5879 5880 5881 5881 5881 5881 5880 5879 5879 5877 5876 5875 5874 5873 5872 5871 5871 5870 5869 5868 5867 5866 5865 5865 5864 5863 5863 5863 5862 5862 5862 5862 5862 5862 5862 5862 5863 5863 5864 5864 5865 5865 5866
5872 5874 5875 5875 5875 5876 5877 5878 5879 5879 5879 5879 5878 5877 5876 5875 5874 5873 5872 5871 5870 5869 5868 5868 5867 5866 5865 5864 5863 5862 5862 5861 5861 5861 5860 5860 5860 5859 5859 5859 5859 5860 5860 5860 5861 5861 5862 5863 5863
5869 5870 5871 5872 5872 5874 5875 5876 5876 5877 5877 5877 5876 5875 5874 5873 5872 5871 5870 5868 5868 5867 5866 5866 5865 5864 5863 5862 5861 5860 5859 5859 5858 5858 5858 5858 5858 5857 5857 5857 5857 5857 5857 5857 5858 5858 5859 5860 5860
5866 5867 5868 5869 5870 5871 5872 5873 5874 5874 5875 5874 5874 5873 5871 5870 5869 5868 5867 5866 5865 5864 5863 5863 5863 5862 5861 5860 5859 5858 5857 5857 5856 5856 5856 5856 5855 5855 5854 5854 5854 5854 5854 5854 5855 5855 5856 5857 5857
5863 5864 5865 5866 5868 5869 5870 5870 5871 5872 5872 5872 5871 5870 5869 5868 5867 5866 5865 5864 5863 5862 5861 5861 5861 5860 5859 5858 5858 5857 5856 5855 5854 5854 5854 5854 5853 5852 5852 5852 5851 5851 5851 5852 5852 5852 5853 5854 5854
5860 5861 5862 5863 5864 5866 5867 5868 5868 5869 5869 5869 5868 5868 5867 5865 5864 5863 5862 5861 5860 5860 5859 5858 5858 5857 5857 5856 5856 5855 5854 5853 5853 5853 5852 5851 5850 5850 5849 5849 5848 5848 5848 5849 5850 5850 5850 5851 5851
5856 5857 5859 5860 5861 5863 5864 5865 5866 5866 5866 5866 5866 5865 5864 5863 5862 5861 5859 5858 5858 5857 5857 5856 5856 5855 5855 5854 5853 5853 5852 5851 5851 5850 5849 5849 5848 5847 5846 5846 5846 5845 5846 5846 5846 5847 5847 5847 5848
5851 5853 5856 5857 5858 5859 5863 5863 5863 5863 5863 5863 5863 5863 5862 5861 5860 5858 5857 5856 5856 5855 5855 5854 5854 5853 5853 5852 5851 5851 5850 5850 5849 5848 5847 5846 5845 5845 5844 5843 5843 5843 5843 5843 5843 5843 5844 5844 5844
5847 5850 5852 5854 5855 5856 5858 5859 5860 5860 5860 5861 5861 5860 5859 5859 5857 5856 5855 5855 5854 5853 5853 5852 5852 5851 5851 5850 5849 5849 5848 5847 5846 5846 5845 5844 5843 5842 5841 5841 5840 5840 5839 5839 5839 5840 5840 5840 5840
5844 5847 5849 5851 5852 5853 5854 5856 5857 5857 5857 5858 5858 5857 5857 5856 5856 5855 5854 5853 5852 5852 5851 5850 5850 5849 5848 5848 5847 5846 5845 5844 5844 5843 5842 5841 5840 5839 5838 5838 5837 5836 5836 5835 5835 5835 5835 5836 5835
5840 5843 5845 5847 5848 5850 5851 5852 5853 5853 5854 5854 5854 5854 5854 5854 5853 5853 5852 5851 5850 5850 5849 5848 5848 5847 5846 5845 5844 5843 5842 5842 5841 5840 5839 5838 5837 5836 5835 5834 5833 5833 5832 5832 5831 5831 5831 5830 5830
5836 5839 5841 5844 5844 5846 5847 5849 5850 5850 5850 5851 5851 5851 5851 5851 5851 5851 5850 5849 5848 5847 5847 5846 5845 5844 5843 5842 5841 5840 5839 5839 5838 5837 5836 5835 5834 5833 5832 5831 5829 5828 5828 5828 5827 5826 5826 5825 5825
5832 5835 5838 5840 5841 5842 5844 5845 5846 5846 5847 5847 5847 5848 5848 5848 5848 5848 5848 5847 5846 5845 5844 5843 5842 5841 5839 5838 5837 5837 5836 5835 5835 5834 5833 5832 5831 5829 5828 5827 5825 5824 5823 5823 5822 5822 5821 5820 5820
5829 5832 5834 5836 5838 5839 5841 5842 5843 5842 5843 5844 5844 5845 5845 5845 5845 5845 5845 5844 5843 5842 5841 5840 5839 5838 5836 5835 5834 5833 5833 5832 5831 5830 5829 5828 5826 5825 5824 5822 5821 5820 5819 5818 5817 5817 5816 5816 5815
5826 5828 5830 5832 5834 5836 5837 5838 5840 5839 5839 5840 5841 5842 5842 5842 5842 5842 5842 5841 5840 5839 5838 5837 5836 5835 5833 5832 5831 5830 5829 5828 5827 5826 5825 5823 5822 5821 5819 5818 5817 5816 5814 5813 5812 5811 5811 5810 5810
5822 5824 5826 5828 5830 5832 5834 5834 5835 5835 5836 5837 5838 5839 5839 5839 5839 5839 5839 5838 5837 5836 5835 5834 5833 5832 5830 5829 5828 5827 5826 5825 5823 5822 5820 5819 5817 5816 5815 5813 5812 5811 5810 5808 5807 5806 5805 5805 5805
5817 5821 5823 5825 5827 5829 5830 5830 5832 5832 5833 5834 5834 5835 5836 5836 5836 5836 5835 5835 5834 5833 5832 5831 5830 5828 5827 5826 5824 5823 5822 5820 5819 5817 5816 5814 5813 5811 5810 5808 5807 5806 5805 5803 5802 5801 5800 5799 5799
5813 5817 5820 5823 5825 5826 5825 5825 5828 5828 5829 5829 5830 5831 5832 5832 5832 5832 5832 5831 5831 5830 5829 5828 5826 5825 5824 5822 5821 5819 5817 5816 5814 5812 5810 5809 5808 5806 5805 5803 5802 5800 5799 5797 5796 5795 5794 5793 5793
5808 5811 5815 5818 5819 5821 5822 5822 5823 5823 5824 5825 5826 5827 5827 5828 5828 5828 5828 5828 5827 5826 5825 5824 5823 5821 5820 5818 5817 5815 5813 5811 5809 5807 5806 5804 5803 5801 5800 5798 5796 5794 5793 5791 5790 5789 5788 5787 5787
5804 5807 5810 5812 5814 5816 5818 5818 5819 5819 5820 5821 5822 5822 5823 5824 5824 5824 5824 5824 5823 5822 5821 5820 5819 5817 5816 5814 5812 5810 5808 5806 5805 5802 5801 5799 5798 5796 5794 5792 5791 5789 5787 5786 5784 5783 5782 5781 5781
5798 5801 5804 5807 5809 5812 5813 5816 5814 5814 5815 5816 5817 5818 5818 5819 5819 5819 5819 5819 5818 5818 5817 5816 5815 5813 5811 5810 5808 5806 5804 5802 5800 5799 5797 5794 5792 5791 5789 5787 5786 5784 5782 5780 5778 5777 5776 5776 5776
5793 5796 5798 5802 5804 5806 5808 5812 5809 5809 5810 5811 5812 5813 5814 5814 5814 5815 5815 5815 5814 5813 5813 5812 5810 5809 5807 5805 5804 5802 5800 5798 5796 5794 5792 5790 5788 5786 5784 5782 5780 5778 5776 5774 5773 5772 5771 5770 5770